Date String (YYYY-MM-DD hh:mm:ss) UTC,Instrument flags,Ambient pressure (hPa),Sample flow (lpm),Bypass flow (lpm),Sample temperature (°C),Ambient temperature (°C),ASC tube jacket temperature (°C),LED temperature (°C),Box temperature (°C),Sample RH (%),Span deviation,Mass concentration (μg/m³),Mass concentration (μg/m³),Mass concentration (μg/m³)
DateTimeUTC,F1_M11,P_M11,Q1_M11,Q2_M11,T1_M11,T2_M11,T3_M11,T4_M11,T5_M11,U1_M11,ZSPAN_M11,X2_M11,X0_M11,X1_M11
2022-04-21 01:00:00,,0819.7,4.99,0.00,29.5,28.8,00.0,38.4,31.3,09.9,0000.0,0007.14,0029.52,0003.11
2022-04-21 01:01:00,,0819.8,4.99,0.00,29.5,28.8,00.0,38.4,31.3,09.9,0000.0,0007.19,0029.06,0003.09
2022-04-21 01:02:00,,0819.8,5.01,0.00,29.5,28.9,00.0,38.4,31.3,09.7,0000.0,0007.19,0029.06,0003.06
2022-04-21 01:03:00,,0819.8,5.01,0.00,29.6,28.9,00.0,38.4,31.4,09.3,0000.0,0007.16,0027.99,0003.04
2022-04-21 01:04:00,,0819.8,4.99,0.00,29.6,28.9,00.0,38.4,31.4,09.4,0000.0,0007.13,0028.29,0003.01
2022-04-21 01:05:00,,0819.8,5.01,0.00,29.6,28.9,00.0,38.4,31.4,09.4,0000.0,0007.15,0029.84,0002.99
2022-04-21 01:06:00,,0819.8,5.01,0.00,29.6,28.9,00.0,38.4,31.4,09.3,0000.0,0007.17,0029.95,0002.96
2022-04-21 01:07:00,,0819.8,5.00,0.00,29.6,28.9,00.0,38.5,31.4,09.7,0000.0,0007.17,0031.37,0002.93
2022-04-21 01:08:00,,0819.8,4.99,0.00,29.6,29.0,00.0,38.5,31.4,09.9,0000.0,0007.13,0032.10,0002.90
2022-04-21 01:09:00,,0819.8,5.00,0.00,29.6,29.0,00.0,38.5,31.4,10.0,0000.0,0007.25,0034.23,0002.89
2022-04-21 01:10:00,,0819.8,5.00,0.00,29.6,29.0,00.0,38.5,31.4,10.0,0000.0,0007.19,0034.73,0002.86
2022-04-21 01:11:00,,0819.8,4.98,0.00,29.7,28.9,00.0,38.5,31.5,10.0,0000.0,0007.15,0034.19,0002.81
2022-04-21 01:12:00,,0819.8,5.01,0.00,29.7,28.9,00.0,38.5,31.5,10.0,0000.0,0007.08,0032.39,0002.78
2022-04-21 01:13:00,,0819.9,4.99,0.00,29.7,29.0,00.0,38.5,31.4,10.0,0000.0,0006.97,0031.18,0002.78
2022-04-21 01:14:00,,0819.9,4.99,0.00,29.7,29.0,00.0,38.5,31.5,10.0,0000.0,0006.88,0031.48,0002.73
2022-04-21 01:15:00,,0819.9,5.02,0.00,29.7,29.0,00.0,38.6,31.5,10.0,0000.0,0006.87,0031.11,0002.66
2022-04-21 01:16:00,,0819.9,4.99,0.00,29.7,27.9,00.0,38.6,31.3,09.9,0000.0,0006.80,0029.71,0002.63
2022-04-21 01:17:00,,0819.9,5.00,0.00,29.5,25.4,00.0,38.5,30.8,09.7,0000.0,0006.77,0029.43,0002.61
2022-04-21 01:18:00,,0819.9,5.01,0.00,29.4,24.7,00.0,38.5,30.6,09.3,0000.0,0006.83,0029.18,0002.63
2022-04-21 01:19:00,,0819.9,5.00,0.00,29.3,25.1,00.0,38.4,30.6,09.9,0000.0,0006.94,0029.33,0002.65
2022-04-21 01:20:00,,0819.9,5.00,0.00,29.2,25.7,00.0,38.4,30.7,10.0,0000.0,0006.88,0028.40,0002.65
2022-04-21 01:21:00,,0819.9,5.01,0.00,29.2,26.2,00.0,38.3,30.8,09.8,0000.0,0006.91,0028.07,0002.67
2022-04-21 01:22:00,,0819.9,5.01,0.00,29.2,26.7,00.0,38.3,30.9,09.9,0000.0,0006.97,0028.57,0002.70
2022-04-21 01:23:00,,0819.9,4.98,0.00,29.2,27.1,00.0,38.3,31.0,09.9,0000.0,0006.91,0028.79,0002.72
2022-04-21 01:24:00,,0819.9,5.02,0.00,29.2,27.4,00.0,38.2,31.0,09.8,0000.0,0007.00,0029.93,0002.72
2022-04-21 01:25:00,,0819.9,4.99,0.00,29.2,27.6,00.0,38.2,31.0,09.6,0000.0,0007.05,0029.36,0002.76
2022-04-21 01:26:00,,0819.9,5.00,0.00,29.3,27.8,00.0,38.2,31.1,09.6,0000.0,0007.11,0029.79,0002.82
2022-04-21 01:27:00,,0819.9,5.00,0.00,29.3,28.0,00.0,38.2,31.1,09.7,0000.0,0007.05,0028.93,0002.83
2022-04-21 01:28:00,,0819.9,4.99,0.00,29.3,28.1,00.0,38.2,31.1,09.8,0000.0,0007.02,0028.74,0002.79
2022-04-21 01:29:00,,0819.9,5.02,0.00,29.3,28.2,00.0,38.2,31.2,09.8,0000.0,0006.90,0028.35,0002.77
2022-04-21 01:30:00,,0819.9,4.99,0.00,29.4,28.3,00.0,38.2,31.2,10.0,0000.0,0006.77,0026.80,0002.76
2022-04-21 01:31:00,,0819.9,5.01,0.00,29.4,28.4,00.0,38.2,31.1,10.1,0000.0,0006.70,0026.87,0002.77
2022-04-21 01:32:00,,0820.0,4.99,0.00,29.4,28.5,00.0,38.2,31.1,10.2,0000.0,0006.68,0026.93,0002.74
2022-04-21 01:33:00,,0820.0,5.00,0.00,29.4,28.5,00.0,38.2,31.2,10.2,0000.0,0006.60,0027.58,0002.72
2022-04-21 01:34:00,,0820.0,5.00,0.00,29.4,28.5,00.0,38.3,31.2,10.3,0000.0,0006.67,0027.74,0002.68
2022-04-21 01:35:00,,0820.0,4.99,0.00,29.4,28.5,00.0,38.3,31.2,10.4,0000.0,0006.50,0026.67,0002.62
2022-04-21 01:36:00,,0820.1,5.02,0.00,29.4,28.6,00.0,38.3,31.2,10.3,0000.0,0006.36,0026.52,0002.57
2022-04-21 01:37:00,,0820.2,4.99,0.00,29.4,28.6,00.0,38.3,31.2,10.3,0000.0,0006.24,0026.67,0002.51
2022-04-21 01:38:00,,0820.2,4.99,0.00,29.4,28.6,00.0,38.3,31.2,10.3,0000.0,0006.26,0027.31,0002.48
2022-04-21 01:39:00,,0820.2,5.02,0.00,29.4,28.6,00.0,38.3,31.2,10.3,0000.0,0006.26,0028.17,0002.47
2022-04-21 01:40:00,,0820.2,5.00,0.00,29.4,28.6,00.0,38.3,31.2,10.3,0000.0,0006.22,0029.51,0002.44
2022-04-21 01:41:00,,0820.2,4.99,0.00,29.4,28.6,00.0,38.3,31.2,10.3,0000.0,0006.17,0029.13,0002.40
2022-04-21 01:42:00,,0820.3,5.01,0.00,29.4,28.5,00.0,38.3,31.2,10.4,0000.0,0006.17,0028.72,0002.37
2022-04-21 01:43:00,,0820.3,5.01,0.00,29.4,28.5,00.0,38.3,31.2,10.4,0000.0,0006.06,0028.00,0002.37
2022-04-21 01:44:00,,0820.3,4.99,0.00,29.4,28.5,00.0,38.3,31.2,10.3,0000.0,0006.01,0027.09,0002.38
2022-04-21 01:45:00,,0820.3,5.00,0.00,29.4,28.5,00.0,38.3,31.1,10.3,0000.0,0005.92,0028.58,0002.37
2022-04-21 01:46:00,,0820.3,5.01,0.00,29.4,28.5,00.0,38.3,31.1,10.4,0000.0,0005.91,0028.33,0002.38
2022-04-21 01:47:00,,0820.4,4.99,0.00,29.4,28.5,00.0,38.3,31.1,10.4,0000.0,0005.94,0028.91,0002.37
2022-04-21 01:48:00,,0820.4,5.00,0.00,29.4,28.5,00.0,38.3,31.2,10.3,0000.0,0005.94,0028.05,0002.39
2022-04-21 01:49:00,,0820.5,5.02,0.00,29.4,28.5,00.0,38.3,31.2,10.3,0000.0,0005.84,0028.72,0002.36
2022-04-21 01:50:00,,0820.5,5.01,0.00,29.4,28.6,00.0,38.3,31.2,10.2,0000.0,0005.82,0028.22,0002.34
2022-04-21 01:51:00,,0820.6,4.99,0.00,29.4,28.7,00.0,38.3,31.2,10.2,0000.0,0005.76,0026.55,0002.34
2022-04-21 01:52:00,,0820.6,5.01,0.00,29.4,28.7,00.0,38.3,31.2,10.2,0000.0,0005.80,0026.73,0002.35
2022-04-21 01:53:00,,0820.6,4.99,0.00,29.5,28.7,00.0,38.4,31.2,10.2,0000.0,0005.84,0028.21,0002.36
2022-04-21 01:54:00,,0820.6,4.99,0.00,29.5,28.7,00.0,38.4,31.3,10.2,0000.0,0005.86,0028.18,0002.36
2022-04-21 01:55:00,,0820.7,5.02,0.00,29.5,28.8,00.0,38.4,31.3,10.2,0000.0,0005.87,0028.24,0002.35
2022-04-21 01:56:00,,0820.7,5.00,0.00,29.5,28.8,00.0,38.4,31.3,10.2,0000.0,0005.84,0026.78,0002.35
2022-04-21 01:57:00,,0820.7,5.00,0.00,29.5,28.8,00.0,38.4,31.3,10.2,0000.0,0005.93,0027.07,0002.34
2022-04-21 01:58:00,,0820.7,5.01,0.00,29.5,28.9,00.0,38.4,31.4,10.2,0000.0,0006.01,0026.84,0002.34
2022-04-21 01:59:00,,0820.6,5.01,0.00,29.6,28.9,00.0,38.4,31.4,10.2,0000.0,0006.02,0026.80,0002.31
